Home > Time Zones > World Clock > Weather > Norway > Odda > Past weeks

Flag for Norway Weather past 2 weeks in Odda, Norway

Now
36 °F

Chilly.


Feels Like: 29 °F
Forecast: 49 / 55 °F
Wind: 9 mph from East

Location: Midtlaeger

Current Time: Oct 21, 2014 at 1:19:00 PM

Latest Report: Oct 21, 2014 at 12:00 PM


Visibility: N/A

Pressure: 29.38 "Hg

Humidity: 87%

Dew point: 33 °F

Location of OddaLocation

Historic Weather in Odda — Graph

°F

Odda temperature yesterday

Maximum temperature yesterday: 42 °F (at 1:00 PM)
Minimum temperature yesterday: 36 °F (at 11:00 PM)
Average temperature yesterday: 40 °F

Past Weeks' High & Low Weather Summary

 TemperatureHumidityPressure
High46 °F (Oct 19, 2:00 AM)93% (Oct 20, 8:00 AM)30.19 "Hg (Oct 20, 8:00 AM)
Low29 °F (Oct 17, 12:00 AM)63% (Oct 14, 5:00 PM)29.26 "Hg (Oct 8, 6:00 AM)
Average37 °F81%29.74 "Hg
* Reported Oct 6 12:00 Noon — Oct 21 12:00 Noon, Odda, Weather by CustomWeather, © 2014

Note: Actual official high and low records may vary slightly from our data, if they occured in-between our weather recording intervals... More about our weather records

Advertising

Odda weather history for previous 24 hours

 ConditionsComfort  
Time TempWeatherWind HumidityBarometerVisibility
12:00 PM
Oct 21
36 °FChilly.9 mph87%29.38 "HgN/A
11:00 AM37 °FChilly.8 mph85%29.38 "HgN/A
10:00 AM37 °FChilly.7 mph83%29.38 "HgN/A
9:00 AM38 °FChilly.8 mph77%29.41 "HgN/A
8:00 AM38 °FChilly.6 mph77%29.41 "HgN/A
7:00 AM38 °FChilly.3 mph76%29.44 "HgN/A
6:00 AM37 °FChilly.3 mph75%29.47 "HgN/A
5:00 AM36 °FChilly.1 mph80%29.50 "HgN/A
4:00 AM35 °FChilly.2 mph86%29.55 "HgN/A
3:00 AM34 °FChilly.1 mph90%29.57 "HgN/A
2:00 AM35 °FChilly.No wind89%29.58 "HgN/A
1:00 AM36 °FChilly.2 mph86%29.58 "HgN/A
12:00 AM36 °FChilly.1 mph88%29.61 "HgN/A
11:00 PM
Oct 20
36 °FChilly.1 mph89%29.61 "HgN/A
10:00 PM37 °FChilly.2 mph91%29.60 "HgN/A
9:00 PM38 °FChilly.5 mph86%29.59 "HgN/A
8:00 PM38 °FChilly.5 mph88%29.60 "HgN/A
7:00 PM38 °FChilly.5 mph86%29.59 "HgN/A
6:00 PM39 °FChilly.7 mph90%29.56 "HgN/A
5:00 PM40 °FQuite cool.7 mph89%29.53 "HgN/A
4:00 PM40 °FQuite cool.7 mph90%29.50 "HgN/A
3:00 PM41 °FQuite cool.7 mph87%29.50 "HgN/A
2:00 PM42 °FQuite cool.7 mph86%29.47 "HgN/A
1:00 PM42 °FQuite cool.7 mph87%29.47 "HgN/A
Weather by CustomWeather, © 2014

See weather overviewHow to use our weather pages